Weather reports worldwide

Advertisment
Spadeadam, United Kingdom (3224): temperature & dewpoint: 16.02.2019 21:00:00 - 22.02.2019 21:00:00 (GMT)Spadeadam, United Kingdom (3224): temperature -20cm: 16.02.2019 21:00:00 - 22.02.2019 21:00:00 (GMT)Spadeadam, United Kingdom (3224): wind speed & gusts: 16.02.2019 21:00:00 - 22.02.2019 21:00:00 (GMT)Spadeadam, United Kingdom (3224): wind direction: 16.02.2019 21:00:00 - 22.02.2019 21:00:00 (GMT)Spadeadam, United Kingdom (3224): reduced air pressure: 16.02.2019 21:00:00 - 22.02.2019 21:00:00 (GMT)Spadeadam, United Kingdom (3224): visibility: 16.02.2019 21:00:00 - 22.02.2019 21:00:00 (GMT)Spadeadam, United Kingdom (3224): precipitation: 16.02.2019 21:00:00 - 22.02.2019 21:00:00 (GMT)
Date & Time tt [°C] td [°C] tt -20cm [°C] ff [km/h] ff [kn] fx [km/h] fx [kn] dd ppp [hPa] vv [km] rr [mm]
22.02.2019 21:00:00 11,2 2,5 - 24 13 - - S 1030,8 50 0,0
22.02.2019 20:00:00 10,5 3,6 - 21 11 - - SSE 1031,1 40 0,0
22.02.2019 19:00:00 9,7 4,7 - 18 10 - - SSE 1031,5 40 0,0
22.02.2019 18:00:00 10,8 3,3 - 26 14 - - S 1031,2 40 0,0
22.02.2019 17:00:00 12,1 5,3 - 22 12 - - S 1031,1 17 0,0
22.02.2019 16:00:00 13,6 5,4 - 26 14 - - S 1030,7 18 0,0
22.02.2019 15:00:00 15,1 6,6 - 28 15 - - S 1030,6 19 0,0
22.02.2019 14:00:00 14,9 6,8 - 22 12 - - S 1030,6 17 0,0
22.02.2019 13:00:00 14,2 7,0 - 18 10 - - SSW 1031,4 24 0,0
22.02.2019 12:00:00 13,4 7,0 - 21 11 - - SSW 1031,6 10 0,0
22.02.2019 11:00:00 12,0 7,9 - 21 11 - - S 1031,4 29 0,0
22.02.2019 10:00:00 9,2 7,0 - 9 5 - - S 1032,0 22 0,0
22.02.2019 09:00:00 8,7 6,2 6,0 5 3 - - S 1031,6 27 0,0
22.02.2019 08:00:00 8,7 6,2 - 13 7 - - S 1030,7 27 0,0
22.02.2019 07:00:00 7,0 5,4 - 11 6 - - SSE 1030,0 22 0,0
22.02.2019 06:00:00 5,9 5,0 - 13 7 - - SSE 1029,5 15 0,0
22.02.2019 05:00:00 5,3 3,9 - 13 7 - - SSE 1029,1 16 0,0
22.02.2019 04:00:00 5,6 4,6 - 13 7 - - S 1029,0 13 0,0
22.02.2019 03:00:00 7,3 5,4 - 15 8 - - SW 1029,1 16 0,0
22.02.2019 02:00:00 7,0 6,1 - 26 14 - - SW 1028,8 8 0,2
22.02.2019 01:00:00 7,0 6,7 - 21 11 - - SW 1028,4 8 0,0
22.02.2019 00:00:00 4,5 3,6 - 9 5 - - SW 1028,3 9 0,0
21.02.2019 23:00:00 5,4 5,2 - 9 5 - - W 1027,8 10 0,0
21.02.2019 22:00:00 5,1 4,9 - 9 5 - - WNW 1027,5 5 0,0
21.02.2019 21:00:00 5,2 5,0 - 5 3 - - NW 1027,2 6 0,0
21.02.2019 20:00:00 5,6 5,2 - 15 8 - - W 1026,3 8 0,0
21.02.2019 19:00:00 6,7 6,1 - 22 12 - - W 1025,6 11 0,0
21.02.2019 18:00:00 7,4 6,3 - 21 11 - - W 1025,2 16 0,0
21.02.2019 17:00:00 8,7 7,0 - 22 12 48 26 W 1024,5 25 0,0
21.02.2019 16:00:00 8,8 7,8 - 37 20 59 32 W 1024,1 19 0,0
21.02.2019 15:00:00 9,5 8,1 - 50 27 61 33 W 1022,8 30 0,0
21.02.2019 14:00:00 10,3 8,6 - 24 13 55 30 W 1023,2 14 0,0
21.02.2019 13:00:00 9,8 8,8 - 34 18 54 29 W 1022,6 22 0,0
21.02.2019 12:00:00 9,2 8,8 - 31 17 50 27 W 1022,0 10 0,0
21.02.2019 11:00:00 9,0 9,0 - 39 21 54 29 W 1021,1 13 0,0
21.02.2019 10:00:00 8,6 8,6 - 37 20 50 27 W 1020,0 6 0,0
21.02.2019 09:00:00 8,9 8,9 5,9 24 13 - - W 1019,4 3,9 0,0
21.02.2019 08:00:00 8,9 8,9 - 24 13 - - WSW 1018,3 9 0,2
21.02.2019 07:00:00 8,5 8,5 - 16 9 - - WSW 1017,2 0,3 0,6
21.02.2019 06:00:00 8,4 8,4 - 16 9 - - SW 1016,6 0,3 0,8
21.02.2019 05:00:00 8,4 8,4 - 21 11 - - WSW 1015,9 0,4 1,0
21.02.2019 04:00:00 8,5 8,5 - 22 12 - - WSW 1015,4 0,7 1,0
21.02.2019 03:00:00 8,4 8,4 - 24 13 - - SW 1015,1 2,8 1,6
21.02.2019 02:00:00 8,1 8,1 - 18 10 - - SW 1015,3 0,7 1,4
21.02.2019 01:00:00 8,2 8,1 - 24 13 57 31 SW 1014,8 2,1 1,6
21.02.2019 00:00:00 8,5 8,1 - 39 21 55 30 WSW 1014,2 4,9 0,0
20.02.2019 23:00:00 8,6 8,2 - 37 20 52 28 WSW 1013,5 45 0,0
20.02.2019 22:00:00 8,5 8,3 - 37 20 52 28 WSW 1012,8 30 0,0
20.02.2019 21:00:00 8,0 7,8 - 21 11 - - SW 1012,6 30 0,0
20.02.2019 20:00:00 8,0 7,7 - 28 15 - - SW 1012,4 50 0,4
20.02.2019 19:00:00 7,7 7,5 - 29 16 - - SW 1012,2 8 1,0
20.02.2019 18:00:00 7,9 7,3 - 29 16 - - SW 1012,1 50 0,0
20.02.2019 17:00:00 8,1 7,3 - 35 19 59 32 SW 1011,3 50 0,0
20.02.2019 16:00:00 7,9 7,1 - 39 21 57 31 SW 1010,9 5 0,2
20.02.2019 15:00:00 8,3 7,1 - 39 21 55 30 SW 1011,0 45 -
20.02.2019 14:00:00 8,3 7,5 - 41 22 55 30 SW 1010,7 9 -
20.02.2019 13:00:00 8,5 7,6 - 35 19 54 29 SW 1011,0 10 0,2
20.02.2019 12:00:00 8,8 7,9 - 35 19 54 29 SW 1011,4 12 0,2
20.02.2019 11:00:00 8,2 6,9 - 34 18 50 27 SW 1011,1 10 0,0
20.02.2019 10:00:00 7,9 7,1 - 34 18 54 29 SW 1011,0 12 0,0
20.02.2019 09:00:00 7,4 6,7 5,2 35 19 46 25 SW 1010,8 10 0,0
20.02.2019 08:00:00 7,1 6,6 - 22 12 - - SW 1010,8 22 0,0
20.02.2019 07:00:00 6,8 6,6 - 24 13 - - SW 1010,4 20 1,0
20.02.2019 06:00:00 6,4 6,3 - 24 13 - - WSW 1010,3 4,4 0,6
20.02.2019 05:00:00 6,4 6,1 - 26 14 - - WSW 1010,0 4,5 0,4
20.02.2019 04:00:00 6,3 5,8 - 29 16 46 25 SW 1009,6 4,0 0,0
20.02.2019 03:00:00 6,2 5,8 - 21 11 - - SW 1009,5 6 0,4
20.02.2019 02:00:00 6,0 5,6 - 26 14 - - SW 1009,6 5 0,4
20.02.2019 01:00:00 5,6 5,3 - 28 15 - - SW 1009,7 4,6 0,4
20.02.2019 00:00:00 5,4 5,0 - 28 15 46 25 SSW 1009,5 9 0,4
19.02.2019 23:00:00 5,3 4,7 - 26 14 - - SSW 1009,8 12 0,8
19.02.2019 22:00:00 5,0 4,6 - 21 11 - - SSW 1010,5 15 1,0
19.02.2019 21:00:00 4,8 4,4 - 22 12 - - SSW 1011,1 10 0,8
19.02.2019 20:00:00 4,8 4,3 - 24 13 - - SSW 1011,4 10 0,6
19.02.2019 19:00:00 4,8 4,2 - 21 11 - - SSW 1011,7 10 0,8
19.02.2019 18:00:00 5,0 3,4 - 13 7 - - SSW 1011,9 16 0,0
19.02.2019 17:00:00 5,4 3,1 - 15 8 - - SW 1012,0 30 0,0
19.02.2019 16:00:00 5,6 3,3 - 24 13 - - WSW 1012,0 35 0,0
19.02.2019 15:00:00 5,6 3,0 - 29 16 - - WSW 1012,3 10 0,0
19.02.2019 14:00:00 5,6 3,3 - 28 15 - - WSW 1012,7 26 0,0
19.02.2019 13:00:00 5,6 3,5 - 26 14 - - WSW 1012,9 10 0,0
19.02.2019 12:00:00 5,4 4,3 - 24 13 - - WSW 1013,2 18 0,0
19.02.2019 11:00:00 5,4 5,1 - 26 14 - - WSW 1012,9 11 0,6
19.02.2019 10:00:00 5,6 5,3 - 26 14 - - W 1012,6 15 0,0
19.02.2019 09:00:00 4,8 4,8 5,0 26 14 - - W 1012,4 5 0,2
19.02.2019 08:00:00 4,6 4,6 - 22 12 - - WSW 1011,8 1,0 0,0
19.02.2019 07:00:00 4,7 4,7 - 22 12 - - W 1011,2 3,4 0,0
19.02.2019 06:00:00 4,8 4,7 - 22 12 - - W 1010,9 2,7 0,0
19.02.2019 05:00:00 4,8 4,8 - 28 15 - - W 1010,4 6 0,0
19.02.2019 04:00:00 5,0 4,9 - 28 15 - - W 1010,0 7 0,8
19.02.2019 03:00:00 4,8 4,8 - 28 15 - - WSW 1009,6 2,7 0,0
19.02.2019 02:00:00 4,9 4,9 - 29 16 - - W 1009,1 5 0,0
19.02.2019 01:00:00 5,0 4,9 - 34 18 52 28 W 1008,4 7 0,2
19.02.2019 00:00:00 5,2 4,9 - 39 21 57 31 WSW 1007,5 6 0,0
18.02.2019 23:00:00 5,1 4,8 - 41 22 57 31 W 1006,7 12 0,0
18.02.2019 22:00:00 5,5 5,3 - 41 22 63 34 W 1006,3 10 0,4
18.02.2019 21:00:00 5,7 5,2 - 44 24 63 34 WSW 1005,7 9 0,4
18.02.2019 20:00:00 5,5 5,2 - 42 23 65 35 WSW 1005,6 5 0,2
18.02.2019 19:00:00 5,4 4,8 - 48 26 63 34 WSW 1005,2 16 1,6
18.02.2019 18:00:00 5,3 4,2 - 46 25 65 35 WSW 1004,7 3,9 0,2
18.02.2019 17:00:00 5,2 3,6 - 39 21 61 33 WSW 1004,5 35 0,0
18.02.2019 16:00:00 5,1 4,0 - 39 21 61 33 SW 1004,5 10 0,0
18.02.2019 15:00:00 4,8 3,8 - 50 27 70 38 SW 1004,0 10 0,6
18.02.2019 14:00:00 5,4 3,1 - 39 21 59 32 SW 1004,9 10 0,2
18.02.2019 13:00:00 7,2 2,7 - 39 21 52 28 SW 1005,1 10 0,0
18.02.2019 12:00:00 7,3 2,5 - 41 22 52 28 SW 1005,7 30 0,0
18.02.2019 11:00:00 6,1 3,4 - 26 14 48 26 WSW 1005,9 23 0,0
18.02.2019 10:00:00 6,2 4,3 - 31 17 46 25 WSW 1005,9 16 0,0
18.02.2019 09:00:00 5,4 4,7 5,0 24 13 - - WSW 1006,2 18 0,2
18.02.2019 08:00:00 5,2 4,5 - 29 16 - - SW 1005,8 20 1,4
18.02.2019 07:00:00 5,3 4,4 - 31 17 46 25 SSW 1005,5 5 1,0
18.02.2019 06:00:00 5,3 3,9 - 35 19 48 26 SSW 1005,5 14 0,0
18.02.2019 05:00:00 5,0 4,2 - 21 11 59 32 SW 1005,8 14 0,4
18.02.2019 04:00:00 5,6 4,4 - 39 21 57 31 SSW 1006,0 4,4 0,0
18.02.2019 03:00:00 6,2 3,2 - 34 18 48 26 SSW 1006,0 17 0,0
18.02.2019 02:00:00 5,9 3,3 - 31 17 54 29 SSW 1006,4 16 0,0
18.02.2019 01:00:00 6,2 3,5 - 34 18 46 25 SSW 1006,6 18 0,0
18.02.2019 00:00:00 6,3 3,6 - 28 15 57 31 SSW 1006,7 15 0,0
17.02.2019 23:00:00 6,4 3,1 - 28 15 - - SW 1006,7 18 0,0
17.02.2019 22:00:00 6,7 3,1 - 28 15 - - SSW 1006,9 19 0,0
17.02.2019 21:00:00 5,8 2,3 - 16 9 - - SSW 1007,4 19 0,0
17.02.2019 20:00:00 6,3 2,4 - 24 13 - - SSW 1007,6 21 0,0
17.02.2019 19:00:00 5,7 2,3 - 26 14 - - SSW 1007,7 22 0,0
17.02.2019 18:00:00 6,6 2,7 - 22 12 - - SSW 1007,0 23 0,0
17.02.2019 17:00:00 8,3 2,9 - 28 15 46 25 SSW 1006,5 26 0,0
17.02.2019 16:00:00 9,3 3,3 - 28 15 54 29 SW 1006,2 35 0,0
17.02.2019 15:00:00 10,3 5,2 - 26 14 48 26 SW 1005,9 28 0,0
17.02.2019 14:00:00 8,8 5,4 - 24 13 54 29 SSW 1006,0 24 0,0
17.02.2019 13:00:00 9,2 5,2 - 34 18 50 27 SSW 1006,2 23 0,0
17.02.2019 12:00:00 9,8 4,3 - 35 19 52 28 SSW 1006,5 20 -
17.02.2019 11:00:00 11,1 3,7 - 31 17 46 25 SSW 1006,3 27 -
17.02.2019 10:00:00 12,1 2,9 - 26 14 - - SSW 1006,3 26 0,0
17.02.2019 09:00:00 10,3 3,0 5,0 21 11 - - SSW 1006,4 40 0,0
17.02.2019 08:00:00 8,6 3,7 - 8 4 - - ESE 1007,7 35 0,0
17.02.2019 07:00:00 7,9 4,2 - 24 13 - - S 1008,5 29 0,0
17.02.2019 06:00:00 7,4 4,2 - 26 14 - - S 1008,6 30 0,0
17.02.2019 05:00:00 6,9 4,6 - 16 9 - - SSW 1009,2 24 0,0
17.02.2019 04:00:00 7,3 5,1 - 18 10 48 26 SW 1010,3 18 0,0
17.02.2019 03:00:00 8,1 6,3 - 35 19 46 25 SSW 1010,3 14 0,0
17.02.2019 02:00:00 9,4 7,4 - 34 18 46 25 SSW 1011,0 18 0,0
17.02.2019 01:00:00 9,1 7,6 - 29 16 - - SSW 1011,3 18 0,0
17.02.2019 00:00:00 6,3 3,6 - 28 15 48 26 SSW 1006,7 15 0,0
16.02.2019 23:00:00 9,1 8,0 - 31 17 - - SSW 1012,4 20 0,0
16.02.2019 22:00:00 8,8 7,5 - 28 15 - - SSW 1012,8 24 0,0
16.02.2019 21:00:00 8,2 6,8 - 29 16 - - S 1013,3 28 0,0

tt = temperature
td = dewpoint
tt -20cm = temperature -20cm
ff = wind speed
fx = gusts
dd = wind direction
ppp = reduced air pressure
vv = visibility
rr = precipitation

Next stations